Find Starlink 34748

NORAD ID: 64848 Int'l Des: 2025-152 Owner: SPXS Country: US Constellation: starlink operational
LEOCIRCULARRETROGRADESSO

Live Position

Loading 3D Globe...

About Starlink 34748

Description loading...

Upcoming Passes

Passes for default location (London). Set your location on the main map for personalized predictions.

Altitude History

Loading altitude history...

Two-Line Element Set

1 64848U 25152G 26103.86846966 .00003802 00000-0 26757-3 0 9993
2 64848 97.6048 320.2220 0002019 69.4482 290.6962 15.05645887 40717
Epoch: Apr 13, 2026 • Age: 12 hours

Current Status

Altitude 553.0 km
Velocity 7.59 km/s
Sub-Earth Point 28.87°N, 172.23°E
Launch Date Jul 19, 2025
Age 0.7 years
Type internet

Technical Details

Classification Payload
Mass 575.00 kg
Dry Mass 530.00 kg
Total Mass 575.00 kg
Length 0.30 m
Diameter 4.10 m
Span 29.00 m
Shape Box + pan
Manufacturer SPXS
Bus Type Starlink V2MO
Phase Status In Orbit
Owner/State SPXS/US

Most Searched